Location: Squirrel Cove
(50.1074°N, 124.9139°W)
Time: 16:35:51
(UTC-07:00)

Envisat - Pass Details

Date: 15 September 2024
Orbit: 762 x 764 km, 98.3° (Epoch: 11 October)

Event Time Altitude Azimuth Distance (km) Brightness Sun altitude
Rises 05:25:56 0° 9° (N) 3,240 6.7 -14.9°
Reaches altitude 10° 05:28:21 10° 2° (N) 2,309 5.8 -14.5°
Maximum altitude 05:33:05 41° 294° (WNW) 1,098 3.5 -13.8°
Enters shadow 05:36:26 18° 232° (SW) 1,806 4.3 -13.3°
